Weather History for Pullman, WA

Change the Weather History Date:

Tuesday, November 12, 2013

  Actual Average Record
Temperature  
Mean Temperature 42 °F 38 °F  
Max Temperature 49 °F 45 °F 63 °F (2001)
Min Temperature 35 °F 32 °F 3 °F (1940)
Degree Days  
Heating Degree Days 23 27  
Month to date heating degree days 301 298  
Since 1 July heating degree days 1138 1204  
Cooling Degree Days 0 0  
Month to date cooling degree days 0 0  
Year to date cooling degree days 334 213  
Moisture  
Dew Point 38 °F    
Average Humidity 86    
Maximum Humidity 100    
Minimum Humidity 71    
Precipitation  
Precipitation 0.00 in 0.08 in 1.57 in (2008)
Month to date precipitation 1.05 0.90  
Year to date precipitation 12.74 13.93  
Sea Level Pressure  
Sea Level Pressure 30.32 in    
Wind  
Wind Speed 4 mph (ESE)    
Max Wind Speed 17 mph    
Max Gust Speed 23 mph    
Visibility 7 miles    
Events Fog    
T = Trace of Precipitation, MM = Missing Value Source: NWS Daily Summary

Daily Weather History Graph

Daily Weather History Graph

Search for Another Location

Airport:

Trip Planner

Search our weather history database for the weather conditions in past years. The results will help you decide how hot, cold, wet, or windy it might be!

Date:

Astronomy

Nov. 12, 2013 Rise Set
Actual Time 6:47 AM PST 4:17 PM PST
Civil Twilight 6:14 AM PST 4:50 PM PST
Nautical Twilight 5:37 AM PST 5:26 PM PST
Astronomical Twilight 5:02 AM PST 6:02 PM PST
Moon 1:50 PM PST (11/12) 1:24 AM PST (11/12)
Length of Visible Light 10h 35m
Length of Day
9h 30m
Waxing Gibbous, 77% of the Moon is Illuminated
Nov 12
Waxing Gibbous
Nov 17
Full
Nov 25
Last Quarter
Dec 2
New
Dec 9
First Quarter

Hourly Weather History & Observations

Time (PST) Temp. Windchill Dew Point Humidity Pressure Visibility Wind Dir Wind Speed Gust Speed Precip Events Conditions
12:53 AM 48.0 °F - 39.0 °F 71% 30.21 in 10.0 mi ESE 16.1 mph - N/A   Clear
1:53 AM 46.0 °F 40.2 °F 37.9 °F 73% 30.21 in 10.0 mi SE 12.7 mph - N/A   Clear
2:53 AM 46.9 °F - 37.0 °F 68% 30.22 in 10.0 mi ESE 16.1 mph - N/A   Clear
3:53 AM 46.0 °F 39.9 °F 37.0 °F 71% 30.22 in 10.0 mi East 13.8 mph - N/A   Clear
4:53 AM 43.0 °F - 36.0 °F 76% 30.26 in 10.0 mi Calm Calm - N/A   Clear
5:53 AM 35.1 °F - 33.1 °F 92% 30.27 in 9.0 mi Calm Calm - N/A   Clear
6:28 AM 35.6 °F 29.9 °F 35.6 °F 100% 30.24 in 2.0 mi WNW 6.9 mph - N/A   Partly Cloudy
6:30 AM 35.6 °F 30.7 °F 35.6 °F 100% 30.24 in 1.0 mi WNW 5.8 mph - N/A   Mist
6:38 AM 37.4 °F 32.8 °F 35.6 °F 93% 30.26 in 0.5 mi WNW 5.8 mph - N/A Fog Fog
6:53 AM 37.9 °F 30.0 °F 37.0 °F 97% 30.32 in 0.2 mi West 12.7 mph - N/A Fog Fog
7:53 AM 37.9 °F 30.9 °F 37.9 °F 100% 30.35 in 0.2 mi West 10.4 mph - N/A Fog Fog
8:53 AM 37.9 °F - 37.9 °F 100% 30.36 in 0.2 mi Calm Calm - N/A Fog Fog
9:53 AM 39.0 °F - 37.9 °F 96% 30.38 in 1.0 mi Calm Calm - N/A   Overcast
10:19 AM 39.2 °F 37.0 °F 37.4 °F 93% 30.35 in 3.0 mi SE 3.5 mph - N/A   Overcast
10:53 AM 39.9 °F 35.8 °F 39.0 °F 97% 30.37 in 7.0 mi East 5.8 mph - N/A   Mostly Cloudy
11:06 AM 41.0 °F 38.0 °F 39.2 °F 93% 30.33 in 7.0 mi East 4.6 mph - N/A   Scattered Clouds
11:53 AM 46.9 °F - 39.9 °F 77% 30.34 in 10.0 mi East 6.9 mph - N/A   Scattered Clouds
12:53 PM 48.0 °F - 41.0 °F 77% 30.32 in - North - - N/A   Unknown
1:53 PM 48.0 °F - 39.0 °F 71% 30.33 in 10.0 mi North - - N/A   Unknown
2:53 PM 48.0 °F - 39.0 °F 71% 30.33 in 10.0 mi East 9.2 mph - N/A   Mostly Cloudy
3:53 PM 46.9 °F - 39.9 °F 77% 30.33 in 10.0 mi ESE 3.5 mph - N/A   Overcast
4:53 PM 48.0 °F - 39.0 °F 71% 30.35 in 10.0 mi ESE 3.5 mph - N/A   Overcast
5:53 PM 46.9 °F - 39.0 °F 74% 30.37 in 10.0 mi Calm Calm - N/A   Overcast
6:53 PM 46.0 °F - 39.9 °F 79% 30.38 in 10.0 mi Calm Calm - N/A   Overcast
7:53 PM 45.0 °F - 39.0 °F 80% 30.39 in 10.0 mi Calm Calm - N/A   Mostly Cloudy
8:53 PM 44.1 °F - 39.9 °F 85% 30.40 in 10.0 mi Calm Calm - N/A   Overcast
9:53 PM 42.1 °F - 37.9 °F 85% 30.40 in 10.0 mi Calm Calm - N/A   Overcast
10:53 PM 37.9 °F - 35.1 °F 89% 30.41 in 9.0 mi Calm Calm - N/A   Scattered Clouds
11:39 PM 35.6 °F - 35.6 °F 100% 30.36 in 9.0 mi Calm Calm - N/A   Mostly Cloudy
11:53 PM 36.0 °F - 34.0 °F 93% 30.41 in 8.0 mi Calm Calm - N/A   Mostly Cloudy